owner,sensor,date,latitude,longitude,vertical_datum,wind_speed,wind_to_direction,wind_speed_of_gust,qcFlag 
DISL,ioos:station:DISL:MHPA:1,2017-07-01T00:00:00Z,30.6671,-87.9365,8.5,4.81,181.1,-999.0,'1111122,1111122,1111122' 
DISL,ioos:station:DISL:MHPA:1,2017-07-01T00:30:00Z,30.6671,-87.9365,8.5,4.28,181.7,-999.0,'1111122,1111122,1111122' 
DISL,ioos:station:DISL:MHPA:1,2017-07-01T01:00:00Z,30.6671,-87.9365,8.5,3.45,187.6,-999.0,'1111122,1111122,1111122' 
DISL,ioos:station:DISL:MHPA:1,2017-07-01T01:30:00Z,30.6671,-87.9365,8.5,3.26,180.2,-999.0,'1111122,1111122,1111122' 
DISL,ioos:station:DISL:MHPA:1,2017-07-01T02:00:00Z,30.6671,-87.9365,8.5,2.66,171.3,-999.0,'1111122,1111122,1111122' 
DISL,ioos:station:DISL:MHPA:1,2017-07-01T02:30:00Z,30.6671,-87.9365,8.5,1.54,130.5,-999.0,'1111122,1111122,1111122' 
DISL,ioos:station:DISL:MHPA:1,2017-07-01T03:00:00Z,30.6671,-87.9365,8.5,3.3,144.4,-999.0,'1111122,1111122,1111122' 
DISL,ioos:station:DISL:MHPA:1,2017-07-01T03:30:00Z,30.6671,-87.9365,8.5,4.79,147.3,-999.0,'1111122,1111122,1111122' 
DISL,ioos:station:DISL:MHPA:1,2017-07-01T04:00:00Z,30.6671,-87.9365,8.5,4.35,159.7,-999.0,'1111122,1111122,1111122' 
DISL,ioos:station:DISL:MHPA:1,2017-07-01T04:30:00Z,30.6671,-87.9365,8.5,4.58,159.4,-999.0,'1111122,1111122,1111122' 
DISL,ioos:station:DISL:MHPA:1,2017-07-01T05:00:00Z,30.6671,-87.9365,8.5,5.23,170.6,-999.0,'1111122,1111122,1111122' 
DISL,ioos:station:DISL:MHPA:1,2017-07-01T05:30:00Z,30.6671,-87.9365,8.5,5.08,176.8,-999.0,'1111122,1111122,1111122' 
DISL,ioos:station:DISL:MHPA:1,2017-07-01T06:00:00Z,30.6671,-87.9365,8.5,4.34,185.9,-999.0,'1111122,1111122,1111122' 
DISL,ioos:station:DISL:MHPA:1,2017-07-01T06:30:00Z,30.6671,-87.9365,8.5,3.49,184.8,-999.0,'1111122,1111122,1111122' 
DISL,ioos:station:DISL:MHPA:1,2017-07-01T07:00:00Z,30.6671,-87.9365,8.5,2.05,200.2,-999.0,'1111122,1111122,1111122' 
DISL,ioos:station:DISL:MHPA:1,2017-07-01T07:30:00Z,30.6671,-87.9365,8.5,1.66,235.2,-999.0,'1111122,1111122,1111122' 
DISL,ioos:station:DISL:MHPA:1,2017-07-01T08:00:00Z,30.6671,-87.9365,8.5,1.46,231.0,-999.0,'1111122,1111122,1111122' 
DISL,ioos:station:DISL:MHPA:1,2017-07-01T08:30:00Z,30.6671,-87.9365,8.5,0.78,222.7,-999.0,'1111122,1111122,1111122' 
DISL,ioos:station:DISL:MHPA:1,2017-07-01T09:00:00Z,30.6671,-87.9365,8.5,0.38,60.57,-999.0,'1111122,1111122,1111122' 
DISL,ioos:station:DISL:MHPA:1,2017-07-01T09:30:00Z,30.6671,-87.9365,8.5,0.47,22.46,-999.0,'1111122,1111122,1111122' 
DISL,ioos:station:DISL:MHPA:1,2017-07-01T10:00:00Z,30.6671,-87.9365,8.5,0.01,32.66,-999.0,'1111122,1111122,1111122' 
DISL,ioos:station:DISL:MHPA:1,2017-07-01T10:30:00Z,30.6671,-87.9365,8.5,0.14,294.4,-999.0,'1111122,1111122,1111122' 
DISL,ioos:station:DISL:MHPA:1,2017-07-01T11:00:00Z,30.6671,-87.9365,8.5,1.86,137.6,-999.0,'1111122,1111122,1111122' 
DISL,ioos:station:DISL:MHPA:1,2017-07-01T11:30:00Z,30.6671,-87.9365,8.5,1.08,75.31,-999.0,'1111122,1111122,1111122' 
DISL,ioos:station:DISL:MHPA:1,2017-07-01T12:00:00Z,30.6671,-87.9365,8.5,1.1,114.9,-999.0,'1111122,1111122,1111122' 
DISL,ioos:station:DISL:MHPA:1,2017-07-01T12:30:00Z,30.6671,-87.9365,8.5,0.26,154.8,-999.0,'1111122,1111122,1111122' 
DISL,ioos:station:DISL:MHPA:1,2017-07-01T13:00:00Z,30.6671,-87.9365,8.5,0.69,167.3,-999.0,'1111122,1111122,1111122' 
DISL,ioos:station:DISL:MHPA:1,2017-07-01T13:30:00Z,30.6671,-87.9365,8.5,0.77,135.2,-999.0,'1111122,1111122,1111122' 
DISL,ioos:station:DISL:MHPA:1,2017-07-01T14:00:00Z,30.6671,-87.9365,8.5,1.01,147.6,-999.0,'1111122,1111122,1111122' 
DISL,ioos:station:DISL:MHPA:1,2017-07-01T14:30:00Z,30.6671,-87.9365,8.5,1.22,180.2,-999.0,'1111122,1111122,1111122' 
DISL,ioos:station:DISL:MHPA:1,2017-07-01T15:00:00Z,30.6671,-87.9365,8.5,5.57,298.3,-999.0,'1111122,1111122,1111122' 
DISL,ioos:station:DISL:MHPA:1,2017-07-01T15:30:00Z,30.6671,-87.9365,8.5,4.75,222.9,-999.0,'1111122,1111122,1111122' 
DISL,ioos:station:DISL:MHPA:1,2017-07-01T16:00:00Z,30.6671,-87.9365,8.5,3.35,214.1,-999.0,'1111122,1111122,1111122' 
DISL,ioos:station:DISL:MHPA:1,2017-07-01T16:30:00Z,30.6671,-87.9365,8.5,2.94,179.3,-999.0,'1111122,1111122,1111122' 
DISL,ioos:station:DISL:MHPA:1,2017-07-01T17:00:00Z,30.6671,-87.9365,8.5,3.06,176.2,-999.0,'1111122,1111122,1111122' 
DISL,ioos:station:DISL:MHPA:1,2017-07-01T17:30:00Z,30.6671,-87.9365,8.5,2.39,170.8,-999.0,'1111122,1111122,1111122' 
DISL,ioos:station:DISL:MHPA:1,2017-07-01T18:00:00Z,30.6671,-87.9365,8.5,2.7,172.2,-999.0,'1111122,1111122,1111122' 
DISL,ioos:station:DISL:MHPA:1,2017-07-01T18:30:00Z,30.6671,-87.9365,8.5,3.07,169.0,-999.0,'1111122,1111122,1111122' 
DISL,ioos:station:DISL:MHPA:1,2017-07-01T19:00:00Z,30.6671,-87.9365,8.5,3.14,170.8,-999.0,'1111122,1111122,1111122' 
DISL,ioos:station:DISL:MHPA:1,2017-07-01T19:30:00Z,30.6671,-87.9365,8.5,3.58,159.4,-999.0,'1111122,1111122,1111122' 
DISL,ioos:station:DISL:MHPA:1,2017-07-01T20:00:00Z,30.6671,-87.9365,8.5,2.95,164.3,-999.0,'1111122,1111122,1111122' 
DISL,ioos:station:DISL:MHPA:1,2017-07-01T20:30:00Z,30.6671,-87.9365,8.5,4.7,169.6,-999.0,'1111122,1111122,1111122' 
DISL,ioos:station:DISL:MHPA:1,2017-07-01T21:00:00Z,30.6671,-87.9365,8.5,4.83,162.5,-999.0,'1111122,1111122,1111122' 
DISL,ioos:station:DISL:MHPA:1,2017-07-01T21:30:00Z,30.6671,-87.9365,8.5,5.13,166.6,-999.0,'1111122,1111122,1111122' 
DISL,ioos:station:DISL:MHPA:1,2017-07-01T22:00:00Z,30.6671,-87.9365,8.5,6.09,167.7,-999.0,'1111122,1111122,1111122' 
DISL,ioos:station:DISL:MHPA:1,2017-07-01T22:30:00Z,30.6671,-87.9365,8.5,6.76,164.5,-999.0,'1111122,1111122,1111122' 
DISL,ioos:station:DISL:MHPA:1,2017-07-01T23:00:00Z,30.6671,-87.9365,8.5,5.81,165.7,-999.0,'1111122,1111122,1111122' 
DISL,ioos:station:DISL:MHPA:1,2017-07-01T23:30:00Z,30.6671,-87.9365,8.5,5.23,170.5,-999.0,'1111122,1111122,1111122' 
DISL,ioos:station:DISL:MHPA:1,2017-07-02T00:00:00Z,30.6671,-87.9365,8.5,4.5,170.0,-999.0,'1111122,1111122,1111122' 
DISL,ioos:station:DISL:MHPA:1,2017-07-02T00:30:00Z,30.6671,-87.9365,8.5,4.23,183.7,-999.0,'1111122,1111122,1111122' 
DISL,ioos:station:DISL:MHPA:1,2017-07-02T01:00:00Z,30.6671,-87.9365,8.5,3.99,191.7,-999.0,'1111122,1111122,1111122' 
DISL,ioos:station:DISL:MHPA:1,2017-07-02T01:30:00Z,30.6671,-87.9365,8.5,3.41,199.4,-999.0,'1111122,1111122,1111122' 
DISL,ioos:station:DISL:MHPA:1,2017-07-02T02:00:00Z,30.6671,-87.9365,8.5,2.85,187.3,-999.0,'1111122,1111122,1111122' 
DISL,ioos:station:DISL:MHPA:1,2017-07-02T02:30:00Z,30.6671,-87.9365,8.5,2.26,176.5,-999.0,'1111122,1111122,1111122' 
DISL,ioos:station:DISL:MHPA:1,2017-07-02T03:00:00Z,30.6671,-87.9365,8.5,1.51,176.8,-999.0,'1111122,1111122,1111122' 
DISL,ioos:station:DISL:MHPA:1,2017-07-02T03:30:00Z,30.6671,-87.9365,8.5,1.69,194.3,-999.0,'1111122,1111122,1111122' 
DISL,ioos:station:DISL:MHPA:1,2017-07-02T04:00:00Z,30.6671,-87.9365,8.5,0.9,195.2,-999.0,'1111122,1111122,1111122' 
DISL,ioos:station:DISL:MHPA:1,2017-07-02T04:30:00Z,30.6671,-87.9365,8.5,1.35,155.2,-999.0,'1111122,1111122,1111122' 
DISL,ioos:station:DISL:MHPA:1,2017-07-02T05:00:00Z,30.6671,-87.9365,8.5,4.03,346.9,-999.0,'1111122,1111122,1111122' 
DISL,ioos:station:DISL:MHPA:1,2017-07-02T05:30:00Z,30.6671,-87.9365,8.5,0.55,70.7,-999.0,'1111122,1111122,1111122' 
DISL,ioos:station:DISL:MHPA:1,2017-07-02T06:00:00Z,30.6671,-87.9365,8.5,1.16,89.5,-999.0,'1111122,1111122,1111122' 
DISL,ioos:station:DISL:MHPA:1,2017-07-02T06:30:00Z,30.6671,-87.9365,8.5,1.12,88.2,-999.0,'1111122,1111122,1111122' 
DISL,ioos:station:DISL:MHPA:1,2017-07-02T07:00:00Z,30.6671,-87.9365,8.5,1.01,91.7,-999.0,'1111122,1111122,1111122' 
DISL,ioos:station:DISL:MHPA:1,2017-07-02T07:30:00Z,30.6671,-87.9365,8.5,0.26,60.54,-999.0,'1111122,1111122,1111122' 
DISL,ioos:station:DISL:MHPA:1,2017-07-02T08:00:00Z,30.6671,-87.9365,8.5,0.97,123.3,-999.0,'1111122,1111122,1111122' 
DISL,ioos:station:DISL:MHPA:1,2017-07-02T08:30:00Z,30.6671,-87.9365,8.5,0.98,74.31,-999.0,'1111122,1111122,1111122' 
DISL,ioos:station:DISL:MHPA:1,2017-07-02T09:00:00Z,30.6671,-87.9365,8.5,1.18,117.6,-999.0,'1111122,1111122,1111122' 
DISL,ioos:station:DISL:MHPA:1,2017-07-02T09:30:00Z,30.6671,-87.9365,8.5,1.71,130.3,-999.0,'1111122,1111122,1111122' 
DISL,ioos:station:DISL:MHPA:1,2017-07-02T10:00:00Z,30.6671,-87.9365,8.5,0.95,106.1,-999.0,'1111122,1111122,1111122' 
DISL,ioos:station:DISL:MHPA:1,2017-07-02T10:30:00Z,30.6671,-87.9365,8.5,0.48,33.63,-999.0,'1111122,1111122,1111122' 
DISL,ioos:station:DISL:MHPA:1,2017-07-02T11:00:00Z,30.6671,-87.9365,8.5,0.11,19.16,-999.0,'1111122,1111122,1111122' 
DISL,ioos:station:DISL:MHPA:1,2017-07-02T11:30:00Z,30.6671,-87.9365,8.5,0.12,50.19,-999.0,'1111122,1111122,1111122' 
DISL,ioos:station:DISL:MHPA:1,2017-07-02T12:00:00Z,30.6671,-87.9365,8.5,0.25,52.57,-999.0,'1111122,1111122,1111122' 
DISL,ioos:station:DISL:MHPA:1,2017-07-02T12:30:00Z,30.6671,-87.9365,8.5,0.0,147.6,-999.0,'1114422,1111122,1111122' 
DISL,ioos:station:DISL:MHPA:1,2017-07-02T13:00:00Z,30.6671,-87.9365,8.5,1.12,341.0,-999.0,'1111122,1111122,1111122' 
DISL,ioos:station:DISL:MHPA:1,2017-07-02T13:30:00Z,30.6671,-87.9365,8.5,1.93,266.5,-999.0,'1111122,1111122,1111122' 
DISL,ioos:station:DISL:MHPA:1,2017-07-02T14:00:00Z,30.6671,-87.9365,8.5,1.29,328.1,-999.0,'1111122,1111122,1111122' 
DISL,ioos:station:DISL:MHPA:1,2017-07-02T14:30:00Z,30.6671,-87.9365,8.5,2.0,274.5,-999.0,'1111122,1111122,1111122' 
DISL,ioos:station:DISL:MHPA:1,2017-07-02T15:00:00Z,30.6671,-87.9365,8.5,1.74,183.5,-999.0,'1111122,1111122,1111122' 
DISL,ioos:station:DISL:MHPA:1,2017-07-02T15:30:00Z,30.6671,-87.9365,8.5,1.43,196.7,-999.0,'1111122,1111122,1111122' 
DISL,ioos:station:DISL:MHPA:1,2017-07-02T16:00:00Z,30.6671,-87.9365,8.5,2.37,271.4,-999.0,'1111122,1111122,1111122' 
DISL,ioos:station:DISL:MHPA:1,2017-07-02T16:30:00Z,30.6671,-87.9365,8.5,3.11,281.0,-999.0,'1111122,1111122,1111122' 
DISL,ioos:station:DISL:MHPA:1,2017-07-02T17:00:00Z,30.6671,-87.9365,8.5,2.36,281.6,-999.0,'1111122,1111122,1111122' 
DISL,ioos:station:DISL:MHPA:1,2017-07-02T17:30:00Z,30.6671,-87.9365,8.5,2.37,179.3,-999.0,'1111122,1111122,1111122' 
DISL,ioos:station:DISL:MHPA:1,2017-07-02T18:00:00Z,30.6671,-87.9365,8.5,2.01,179.4,-999.0,'1111122,1111122,1111122' 
DISL,ioos:station:DISL:MHPA:1,2017-07-02T18:30:00Z,30.6671,-87.9365,8.5,2.0,177.5,-999.0,'1111122,1111122,1111122' 
DISL,ioos:station:DISL:MHPA:1,2017-07-02T19:00:00Z,30.6671,-87.9365,8.5,2.23,176.5,-999.0,'1111122,1111122,1111122' 
DISL,ioos:station:DISL:MHPA:1,2017-07-02T19:30:00Z,30.6671,-87.9365,8.5,2.53,176.2,-999.0,'1111122,1111122,1111122' 
DISL,ioos:station:DISL:MHPA:1,2017-07-02T20:00:00Z,30.6671,-87.9365,8.5,2.55,174.5,-999.0,'1111122,1111122,1111122' 
DISL,ioos:station:DISL:MHPA:1,2017-07-02T20:30:00Z,30.6671,-87.9365,8.5,2.83,184.5,-999.0,'1111122,1111122,1111122' 
DISL,ioos:station:DISL:MHPA:1,2017-07-02T21:00:00Z,30.6671,-87.9365,8.5,3.74,188.7,-999.0,'1111122,1111122,1111122' 
DISL,ioos:station:DISL:MHPA:1,2017-07-02T21:30:00Z,30.6671,-87.9365,8.5,4.34,181.3,-999.0,'1111122,1111122,1111122' 
DISL,ioos:station:DISL:MHPA:1,2017-07-02T22:00:00Z,30.6671,-87.9365,8.5,4.23,181.6,-999.0,'1111122,1111122,1111122' 
DISL,ioos:station:DISL:MHPA:1,2017-07-02T22:30:00Z,30.6671,-87.9365,8.5,3.45,178.3,-999.0,'1111122,1111122,1111122' 
DISL,ioos:station:DISL:MHPA:1,2017-07-02T23:00:00Z,30.6671,-87.9365,8.5,3.19,177.8,-999.0,'1111122,1111122,1111122' 
DISL,ioos:station:DISL:MHPA:1,2017-07-02T23:30:00Z,30.6671,-87.9365,8.5,3.29,158.5,-999.0,'1111122,1111122,1111122' 
DISL,ioos:station:DISL:MHPA:1,2017-07-03T00:00:00Z,30.6671,-87.9365,8.5,2.95,149.1,-999.0,'1111122,1111122,1111122' 
DISL,ioos:station:DISL:MHPA:1,2017-07-03T00:30:00Z,30.6671,-87.9365,8.5,4.28,156.2,-999.0,'1111122,1111122,1111122' 
DISL,ioos:station:DISL:MHPA:1,2017-07-03T01:00:00Z,30.6671,-87.9365,8.5,4.32,150.8,-999.0,'1111122,1111122,1111122' 
DISL,ioos:station:DISL:MHPA:1,2017-07-03T01:30:00Z,30.6671,-87.9365,8.5,3.43,158.1,-999.0,'1111122,1111122,1111122' 
DISL,ioos:station:DISL:MHPA:1,2017-07-03T02:00:00Z,30.6671,-87.9365,8.5,3.04,157.3,-999.0,'1111122,1111122,1111122' 
DISL,ioos:station:DISL:MHPA:1,2017-07-03T02:30:00Z,30.6671,-87.9365,8.5,2.5,169.0,-999.0,'1111122,1111122,1111122' 
DISL,ioos:station:DISL:MHPA:1,2017-07-03T03:00:00Z,30.6671,-87.9365,8.5,1.88,164.2,-999.0,'1111122,1111122,1111122' 
DISL,ioos:station:DISL:MHPA:1,2017-07-03T03:30:00Z,30.6671,-87.9365,8.5,0.99,194.4,-999.0,'1111122,1111122,1111122' 
DISL,ioos:station:DISL:MHPA:1,2017-07-03T04:00:00Z,30.6671,-87.9365,8.5,0.38,162.5,-999.0,'1111122,1111122,1111122' 
DISL,ioos:station:DISL:MHPA:1,2017-07-03T04:30:00Z,30.6671,-87.9365,8.5,1.82,174.4,-999.0,'1111122,1111122,1111122' 
DISL,ioos:station:DISL:MHPA:1,2017-07-03T05:00:00Z,30.6671,-87.9365,8.5,1.09,174.8,-999.0,'1111122,1111122,1111122' 
DISL,ioos:station:DISL:MHPA:1,2017-07-03T05:30:00Z,30.6671,-87.9365,8.5,0.85,176.8,-999.0,'1111122,1111122,1111122' 
DISL,ioos:station:DISL:MHPA:1,2017-07-03T06:00:00Z,30.6671,-87.9365,8.5,0.43,59.78,-999.0,'1111122,1111122,1111122' 
DISL,ioos:station:DISL:MHPA:1,2017-07-03T06:30:00Z,30.6671,-87.9365,8.5,0.56,104.0,-999.0,'1111122,1111122,1111122' 
DISL,ioos:station:DISL:MHPA:1,2017-07-03T07:00:00Z,30.6671,-87.9365,8.5,0.7,151.9,-999.0,'1111122,1111122,1111122' 
DISL,ioos:station:DISL:MHPA:1,2017-07-03T07:30:00Z,30.6671,-87.9365,8.5,1.49,168.9,-999.0,'1111122,1111122,1111122' 
DISL,ioos:station:DISL:MHPA:1,2017-07-03T08:00:00Z,30.6671,-87.9365,8.5,0.75,104.8,-999.0,'1111122,1111122,1111122' 
DISL,ioos:station:DISL:MHPA:1,2017-07-03T08:30:00Z,30.6671,-87.9365,8.5,0.98,132.9,-999.0,'1111122,1111122,1111122' 
DISL,ioos:station:DISL:MHPA:1,2017-07-03T09:00:00Z,30.6671,-87.9365,8.5,0.9,157.5,-999.0,'1111122,1111122,1111122' 
DISL,ioos:station:DISL:MHPA:1,2017-07-03T09:30:00Z,30.6671,-87.9365,8.5,1.0,133.5,-999.0,'1111122,1111122,1111122' 
DISL,ioos:station:DISL:MHPA:1,2017-07-03T10:00:00Z,30.6671,-87.9365,8.5,0.13,38.6,-999.0,'1111122,1111122,1111122' 
DISL,ioos:station:DISL:MHPA:1,2017-07-03T10:30:00Z,30.6671,-87.9365,8.5,0.21,331.7,-999.0,'1111122,1111122,1111122' 
DISL,ioos:station:DISL:MHPA:1,2017-07-03T11:00:00Z,30.6671,-87.9365,8.5,1.11,19.66,-999.0,'1111122,1111122,1111122' 
DISL,ioos:station:DISL:MHPA:1,2017-07-03T11:30:00Z,30.6671,-87.9365,8.5,0.71,10.8,-999.0,'1111122,1111122,1111122' 
DISL,ioos:station:DISL:MHPA:1,2017-07-03T12:00:00Z,30.6671,-87.9365,8.5,1.19,350.8,-999.0,'1111122,1111122,1111122' 
DISL,ioos:station:DISL:MHPA:1,2017-07-03T12:30:00Z,30.6671,-87.9365,8.5,1.31,355.5,-999.0,'1111122,1111122,1111122' 
DISL,ioos:station:DISL:MHPA:1,2017-07-03T13:00:00Z,30.6671,-87.9365,8.5,1.4,315.0,-999.0,'1111122,1111122,1111122' 
DISL,ioos:station:DISL:MHPA:1,2017-07-03T13:30:00Z,30.6671,-87.9365,8.5,1.66,322.7,-999.0,'1111122,1111122,1111122' 
DISL,ioos:station:DISL:MHPA:1,2017-07-03T14:00:00Z,30.6671,-87.9365,8.5,2.42,294.9,-999.0,'1111122,1111122,1111122' 
DISL,ioos:station:DISL:MHPA:1,2017-07-03T14:30:00Z,30.6671,-87.9365,8.5,2.94,300.3,-999.0,'1111122,1111122,1111122' 
DISL,ioos:station:DISL:MHPA:1,2017-07-03T15:00:00Z,30.6671,-87.9365,8.5,1.87,278.8,-999.0,'1111122,1111122,1111122' 
DISL,ioos:station:DISL:MHPA:1,2017-07-03T15:30:00Z,30.6671,-87.9365,8.5,1.62,223.4,-999.0,'1111122,1111122,1111122' 
DISL,ioos:station:DISL:MHPA:1,2017-07-03T16:00:00Z,30.6671,-87.9365,8.5,2.15,189.5,-999.0,'1111122,1111122,1111122' 
DISL,ioos:station:DISL:MHPA:1,2017-07-03T16:30:00Z,30.6671,-87.9365,8.5,2.13,184.0,-999.0,'1111122,1111122,1111122' 
DISL,ioos:station:DISL:MHPA:1,2017-07-03T17:00:00Z,30.6671,-87.9365,8.5,1.97,206.8,-999.0,'1111122,1111122,1111122' 
DISL,ioos:station:DISL:MHPA:1,2017-07-03T17:30:00Z,30.6671,-87.9365,8.5,2.63,179.6,-999.0,'1111122,1111122,1111122' 
DISL,ioos:station:DISL:MHPA:1,2017-07-03T18:00:00Z,30.6671,-87.9365,8.5,3.2,175.4,-999.0,'1111122,1111122,1111122' 
DISL,ioos:station:DISL:MHPA:1,2017-07-03T18:30:00Z,30.6671,-87.9365,8.5,3.2,174.2,-999.0,'1111122,1111122,1111122' 
DISL,ioos:station:DISL:MHPA:1,2017-07-03T19:00:00Z,30.6671,-87.9365,8.5,2.51,174.1,-999.0,'1111122,1111122,1111122' 
DISL,ioos:station:DISL:MHPA:1,2017-07-03T19:30:00Z,30.6671,-87.9365,8.5,1.95,173.1,-999.0,'1111122,1111122,1111122' 
DISL,ioos:station:DISL:MHPA:1,2017-07-03T20:00:00Z,30.6671,-87.9365,8.5,2.26,182.6,-999.0,'1111122,1111122,1111122' 
DISL,ioos:station:DISL:MHPA:1,2017-07-03T20:30:00Z,30.6671,-87.9365,8.5,3.19,186.5,-999.0,'1111122,1111122,1111122' 
DISL,ioos:station:DISL:MHPA:1,2017-07-03T21:00:00Z,30.6671,-87.9365,8.5,4.17,191.1,-999.0,'1111122,1111122,1111122' 
DISL,ioos:station:DISL:MHPA:1,2017-07-03T21:30:00Z,30.6671,-87.9365,8.5,4.42,189.7,-999.0,'1111122,1111122,1111122' 
DISL,ioos:station:DISL:MHPA:1,2017-07-03T22:00:00Z,30.6671,-87.9365,8.5,4.71,191.4,-999.0,'1111122,1111122,1111122' 
DISL,ioos:station:DISL:MHPA:1,2017-07-03T22:30:00Z,30.6671,-87.9365,8.5,4.67,193.2,-999.0,'1111122,1111122,1111122' 
DISL,ioos:station:DISL:MHPA:1,2017-07-03T23:00:00Z,30.6671,-87.9365,8.5,4.89,181.8,-999.0,'1111122,1111122,1111122' 
DISL,ioos:station:DISL:MHPA:1,2017-07-03T23:30:00Z,30.6671,-87.9365,8.5,4.81,181.5,-999.0,'1111122,1111122,1111122' 
DISL,ioos:station:DISL:MHPA:1,2017-07-04T00:00:00Z,30.6671,-87.9365,8.5,4.8,183.5,-999.0,'1111122,1111122,1111122' 
DISL,ioos:station:DISL:MHPA:1,2017-07-04T00:30:00Z,30.6671,-87.9365,8.5,3.71,189.2,-999.0,'1111122,1111122,1111122' 
DISL,ioos:station:DISL:MHPA:1,2017-07-04T01:00:00Z,30.6671,-87.9365,8.5,2.93,201.4,-999.0,'1111122,1111122,1111122' 
DISL,ioos:station:DISL:MHPA:1,2017-07-04T01:30:00Z,30.6671,-87.9365,8.5,2.45,196.9,-999.0,'1111122,1111122,1111122' 
DISL,ioos:station:DISL:MHPA:1,2017-07-04T02:00:00Z,30.6671,-87.9365,8.5,1.98,195.2,-999.0,'1111122,1111122,1111122' 
DISL,ioos:station:DISL:MHPA:1,2017-07-04T02:30:00Z,30.6671,-87.9365,8.5,2.29,193.2,-999.0,'1111122,1111122,1111122' 
DISL,ioos:station:DISL:MHPA:1,2017-07-04T03:00:00Z,30.6671,-87.9365,8.5,1.85,156.5,-999.0,'1111122,1111122,1111122' 
DISL,ioos:station:DISL:MHPA:1,2017-07-04T03:30:00Z,30.6671,-87.9365,8.5,2.21,179.8,-999.0,'1111122,1111122,1111122' 
DISL,ioos:station:DISL:MHPA:1,2017-07-04T04:00:00Z,30.6671,-87.9365,8.5,2.48,170.1,-999.0,'1111122,1111122,1111122' 
DISL,ioos:station:DISL:MHPA:1,2017-07-04T04:30:00Z,30.6671,-87.9365,8.5,2.6,173.9,-999.0,'1111122,1111122,1111122' 
DISL,ioos:station:DISL:MHPA:1,2017-07-04T05:00:00Z,30.6671,-87.9365,8.5,1.42,160.0,-999.0,'1111122,1111122,1111122' 
DISL,ioos:station:DISL:MHPA:1,2017-07-04T05:30:00Z,30.6671,-87.9365,8.5,3.16,184.2,-999.0,'1111122,1111122,1111122' 
DISL,ioos:station:DISL:MHPA:1,2017-07-04T06:00:00Z,30.6671,-87.9365,8.5,2.36,198.3,-999.0,'1111122,1111122,1111122' 
DISL,ioos:station:DISL:MHPA:1,2017-07-04T06:30:00Z,30.6671,-87.9365,8.5,2.1,236.3,-999.0,'1111122,1111122,1111122' 
DISL,ioos:station:DISL:MHPA:1,2017-07-04T07:00:00Z,30.6671,-87.9365,8.5,1.73,219.8,-999.0,'1111122,1111122,1111122' 
DISL,ioos:station:DISL:MHPA:1,2017-07-04T07:30:00Z,30.6671,-87.9365,8.5,1.77,226.6,-999.0,'1111122,1111122,1111122' 
DISL,ioos:station:DISL:MHPA:1,2017-07-04T08:00:00Z,30.6671,-87.9365,8.5,2.32,215.5,-999.0,'1111122,1111122,1111122' 
DISL,ioos:station:DISL:MHPA:1,2017-07-04T08:30:00Z,30.6671,-87.9365,8.5,1.82,242.8,-999.0,'1111122,1111122,1111122' 
DISL,ioos:station:DISL:MHPA:1,2017-07-04T09:00:00Z,30.6671,-87.9365,8.5,1.17,263.4,-999.0,'1111122,1111122,1111122' 
DISL,ioos:station:DISL:MHPA:1,2017-07-04T09:30:00Z,30.6671,-87.9365,8.5,1.37,237.0,-999.0,'1111122,1111122,1111122' 
DISL,ioos:station:DISL:MHPA:1,2017-07-04T10:00:00Z,30.6671,-87.9365,8.5,0.03,320.9,-999.0,'1111122,1111122,1111122' 
DISL,ioos:station:DISL:MHPA:1,2017-07-04T10:30:00Z,30.6671,-87.9365,8.5,0.2,87.3,-999.0,'1111122,1111122,1111122' 
DISL,ioos:station:DISL:MHPA:1,2017-07-04T11:00:00Z,30.6671,-87.9365,8.5,0.62,50.22,-999.0,'1111122,1111122,1111122' 
DISL,ioos:station:DISL:MHPA:1,2017-07-04T11:30:00Z,30.6671,-87.9365,8.5,0.39,79.44,-999.0,'1111122,1111122,1111122' 
DISL,ioos:station:DISL:MHPA:1,2017-07-04T12:00:00Z,30.6671,-87.9365,8.5,0.52,15.43,-999.0,'1111122,1111122,1111122' 
DISL,ioos:station:DISL:MHPA:1,2017-07-04T12:30:00Z,30.6671,-87.9365,8.5,0.07,14.22,-999.0,'1111122,1111122,1111122' 
DISL,ioos:station:DISL:MHPA:1,2017-07-04T13:00:00Z,30.6671,-87.9365,8.5,0.1,163.7,-999.0,'1111122,1111122,1111122' 
DISL,ioos:station:DISL:MHPA:1,2017-07-04T13:30:00Z,30.6671,-87.9365,8.5,1.11,281.4,-999.0,'1111122,1111122,1111122' 
DISL,ioos:station:DISL:MHPA:1,2017-07-04T14:00:00Z,30.6671,-87.9365,8.5,1.56,303.7,-999.0,'1111122,1111122,1111122' 
DISL,ioos:station:DISL:MHPA:1,2017-07-04T14:30:00Z,30.6671,-87.9365,8.5,0.97,237.1,-999.0,'1111122,1111122,1111122' 
DISL,ioos:station:DISL:MHPA:1,2017-07-04T15:00:00Z,30.6671,-87.9365,8.5,1.36,199.2,-999.0,'1111122,1111122,1111122' 
DISL,ioos:station:DISL:MHPA:1,2017-07-04T15:30:00Z,30.6671,-87.9365,8.5,1.32,169.1,-999.0,'1111122,1111122,1111122' 
DISL,ioos:station:DISL:MHPA:1,2017-07-04T16:00:00Z,30.6671,-87.9365,8.5,1.58,180.1,-999.0,'1111122,1111122,1111122' 
DISL,ioos:station:DISL:MHPA:1,2017-07-04T16:30:00Z,30.6671,-87.9365,8.5,2.14,174.2,-999.0,'1111122,1111122,1111122' 
DISL,ioos:station:DISL:MHPA:1,2017-07-04T17:00:00Z,30.6671,-87.9365,8.5,1.51,171.7,-999.0,'1111122,1111122,1111122' 
DISL,ioos:station:DISL:MHPA:1,2017-07-04T17:30:00Z,30.6671,-87.9365,8.5,2.63,168.9,-999.0,'1111122,1111122,1111122' 
DISL,ioos:station:DISL:MHPA:1,2017-07-04T18:00:00Z,30.6671,-87.9365,8.5,3.19,167.1,-999.0,'1111122,1111122,1111122' 
DISL,ioos:station:DISL:MHPA:1,2017-07-04T18:30:00Z,30.6671,-87.9365,8.5,3.03,174.8,-999.0,'1111122,1111122,1111122' 
DISL,ioos:station:DISL:MHPA:1,2017-07-04T19:00:00Z,30.6671,-87.9365,8.5,3.0,173.7,-999.0,'1111122,1111122,1111122' 
DISL,ioos:station:DISL:MHPA:1,2017-07-04T19:30:00Z,30.6671,-87.9365,8.5,4.45,169.3,-999.0,'1111122,1111122,1111122' 
DISL,ioos:station:DISL:MHPA:1,2017-07-04T20:00:00Z,30.6671,-87.9365,8.5,4.69,178.9,-999.0,'1111122,1111122,1111122' 
DISL,ioos:station:DISL:MHPA:1,2017-07-04T20:30:00Z,30.6671,-87.9365,8.5,4.52,176.7,-999.0,'1111122,1111122,1111122' 
DISL,ioos:station:DISL:MHPA:1,2017-07-04T21:00:00Z,30.6671,-87.9365,8.5,4.47,181.9,-999.0,'1111122,1111122,1111122' 
DISL,ioos:station:DISL:MHPA:1,2017-07-04T21:30:00Z,30.6671,-87.9365,8.5,4.95,177.7,-999.0,'1111122,1111122,1111122' 
DISL,ioos:station:DISL:MHPA:1,2017-07-04T22:00:00Z,30.6671,-87.9365,8.5,5.04,182.0,-999.0,'1111122,1111122,1111122' 
DISL,ioos:station:DISL:MHPA:1,2017-07-04T22:30:00Z,30.6671,-87.9365,8.5,4.96,176.0,-999.0,'1111122,1111122,1111122' 
DISL,ioos:station:DISL:MHPA:1,2017-07-04T23:00:00Z,30.6671,-87.9365,8.5,4.62,174.2,-999.0,'1111122,1111122,1111122' 
DISL,ioos:station:DISL:MHPA:1,2017-07-04T23:30:00Z,30.6671,-87.9365,8.5,5.13,171.7,-999.0,'1111122,1111122,1111122' 
DISL,ioos:station:DISL:MHPA:1,2017-07-05T00:00:00Z,30.6671,-87.9365,8.5,4.88,176.5,-999.0,'1111122,1111122,1111122' 
DISL,ioos:station:DISL:MHPA:1,2017-07-05T00:30:00Z,30.6671,-87.9365,8.5,4.94,173.3,-999.0,'1111122,1111122,1111122' 
DISL,ioos:station:DISL:MHPA:1,2017-07-05T01:00:00Z,30.6671,-87.9365,8.5,4.7,170.4,-999.0,'1111122,1111122,1111122' 
DISL,ioos:station:DISL:MHPA:1,2017-07-05T01:30:00Z,30.6671,-87.9365,8.5,4.36,170.2,-999.0,'1111122,1111122,1111122' 
DISL,ioos:station:DISL:MHPA:1,2017-07-05T02:00:00Z,30.6671,-87.9365,8.5,3.97,168.5,-999.0,'1111122,1111122,1111122' 
DISL,ioos:station:DISL:MHPA:1,2017-07-05T02:30:00Z,30.6671,-87.9365,8.5,3.7,171.9,-999.0,'1111122,1111122,1111122' 
DISL,ioos:station:DISL:MHPA:1,2017-07-05T03:00:00Z,30.6671,-87.9365,8.5,3.68,175.3,-999.0,'1111122,1111122,1111122' 
DISL,ioos:station:DISL:MHPA:1,2017-07-05T03:30:00Z,30.6671,-87.9365,8.5,3.63,174.1,-999.0,'1111122,1111122,1111122' 
DISL,ioos:station:DISL:MHPA:1,2017-07-05T04:00:00Z,30.6671,-87.9365,8.5,3.41,174.1,-999.0,'1111122,1111122,1111122' 
DISL,ioos:station:DISL:MHPA:1,2017-07-05T04:30:00Z,30.6671,-87.9365,8.5,2.56,177.8,-999.0,'1111122,1111122,1111122' 
DISL,ioos:station:DISL:MHPA:1,2017-07-05T05:00:00Z,30.6671,-87.9365,8.5,2.34,171.4,-999.0,'1111122,1111122,1111122' 
DISL,ioos:station:DISL:MHPA:1,2017-07-05T05:30:00Z,30.6671,-87.9365,8.5,2.51,166.4,-999.0,'1111122,1111122,1111122' 